Theta_e
312 313 310 311 312 315 321 320 320 320 320 320 320 320 317 317 316 316 316 316 315 316 316 319 320 341 351 351 346 350 343 348 351 351 353 353 351 351 352 352 352 352 350 352
308 314 311 311 312 314 319 321 320 320 321 320 319 319 318 318 317 316 317 316 316 316 317 319 320 352 352 351 346 335 343 353 353 353 352 352 352 350 350 352 352 350 351 351
310 313 312 310 311 315 316 321 320 320 320 321 320 320 319 319 318 317 318 317 317 317 317 318 319 358 357 353 346 338 343 342 345 352 354 352 350 350 350 350 351 351 350 349
311 312 313 312 310 313 317 319 321 321 320 320 320 321 320 319 319 318 318 317 317 317 318 318 336 353 353 354 354 352 349 347 349 351 353 352 352 350 348 348 349 349 348 347
314 314 314 313 311 311 315 317 320 321 322 323 321 320 321 319 320 320 318 318 318 317 318 318 346 354 352 351 348 335 348 348 354 352 352 352 349 349 348 348 347 346 343 342
314 313 313 315 314 311 314 316 319 320 321 325 325 319 318 320 320 320 319 319 319 318 318 329 342 356 351 350 345 333 335 351 352 351 351 351 349 348 348 347 343 341 338 337
316 314 311 315 316 315 311 315 321 324 324 333 326 324 319 320 320 319 319 319 319 318 317 333 344 352 350 351 347 344 350 349 350 350 349 348 347 347 347 343 340 335 333 331
323 318 313 313 314 316 311 311 328 331 327 327 326 328 321 320 321 320 320 318 318 317 316 334 350 351 348 348 345 345 348 349 349 349 348 347 347 346 342 344 335 330 329 325
322 317 312 312 314 316 318 314 318 324 323 326 327 326 329 324 324 320 320 319 318 317 322 339 347 345 344 343 342 344 343 341 339 336 337 333 331 328 327 327 327 322 321 320
318 321 314 312 314 315 317 315 318 326 331 331 328 326 328 330 328 321 319 318 325 340 342 342 342 340 339 338 336 335 334 332 330 328 328 327 325 325 324 323 321 320 320 319
318 320 316 312 316 319 318 320 320 322 326 325 331 329 330 338 322 328 334 337 341 341 339 338 337 336 335 334 334 332 329 327 326 325 324 323 322 321 321 320 319 318 317 316
317 322 321 312 316 317 317 318 321 325 326 327 330 333 334 335 335 335 334 341 340 338 336 335 334 333 332 331 328 327 326 324 323 322 321 321 320 319 318 317 316 316 316 316
317 322 320 317 320 320 320 319 321 322 326 328 333 337 336 334 335 336 340 339 337 336 334 333 331 329 327 326 325 324 323 323 322 321 320 319 317 317 316 315 315 316 316 316
317 320 323 319 318 321 323 323 320 322 329 333 334 341 336 332 332 334 334 334 334 333 330 328 326 325 324 324 323 322 322 321 320 318 317 316 315 315 315 315 315 316 316 316
319 321 321 322 323 319 322 322 323 323 326 331 334 336 335 333 332 331 331 331 329 327 326 324 322 320 319 318 317 318 318 318 317 315 315 315 314 314 314 315 316 315 315 315
318 322 322 322 322 322 320 320 321 321 323 333 334 337 333 331 329 331 329 327 325 322 320 318 317 316 315 314 314 314 314 314 314 313 313 314 313 313 315 315 314 314 313 313
316 323 326 326 323 324 323 321 321 324 331 331 335 333 330 328 328 326 325 322 321 319 317 316 315 314 313 313 313 313 312 312 312 311 311 312 312 313 313 312 313 313 313 313
320 323 323 325 325 322 326 322 328 330 332 331 330 330 327 326 324 322 321 319 317 316 315 313 312 311 312 311 312 312 311 310 310 310 310 311 311 310 310 310 311 312 313 313
321 322 326 322 325 326 322 320 324 329 331 328 328 326 325 323 320 319 316 315 314 312 311 311 311 311 311 312 311 310 309 309 309 309 309 309 309 308 309 309 309 311 312 312
319 320 323 325 326 327 320 313 314 317 333 326 325 326 322 320 319 316 313 312 311 310 309 309 309 309 309 309 308 308 308 308 309 308 308 308 308 308 308 308 308 309 311 310
314 312 322 324 326 321 309 308 311 328 329 324 323 323 320 316 313 311 309 309 308 308 307 307 308 309 308 307 306 306 306 306 306 306 307 306 307 308 307 307 308 308 309 308
309 312 310 317 322 321 306 311 328 325 323 322 319 315 312 309 308 306 306 305 306 306 305 304 304 303 305 304 304 304 304 304 304 304 304 304 305 306 307 307 307 307 307 308
310 306 307 306 306 303 302 306 319 318 318 316 313 311 309 307 307 306 306 305 304 304 303 303 302 301 301 301 301 301 302 303 302 301 302 302 304 303 303 303 303 303 303 301
301 302 307 308 304 302 303 309 314 313 313 312 311 309 307 307 305 305 305 305 304 303 302 302 301 300 299 299 298 299 300 300 300 299 299 300 300 300 300 300 299 300 298 297
300 301 303 304 301 303 302 303 312 312 310 308 306 304 304 303 304 304 302 301 301 301 301 301 300 299 298 297 297 297 297 297 297 296 297 298 298 299 298 297 297 297 296 295
299 299 302 301 300 300 299 301 303 306 306 305 304 303 303 303 302 301 300 299 300 299 299 300 299 298 297 296 296 295 295 295 295 295 295 296 296 297 297 297 297 296 296 295
Wind_Speed
5 5 15 17 20 23 19 20 22 15 20 16 23 16 14 10 9 14 10 9 10 9 9 28 32 22 36 45 49 43 38 38 38 38 27 21 17 13 9 11 15 16 11 9
10 13 21 18 19 23 25 23 21 16 18 19 12 16 9 13 12 14 15 12 11 10 10 16 16 24 32 38 45 43 33 32 30 29 31 29 23 16 14 11 12 13 13 12
13 11 14 25 21 21 26 23 19 16 16 16 11 7 16 19 17 8 19 16 11 17 11 9 7 24 33 32 35 36 34 29 23 31 29 24 23 18 16 15 16 14 12 11
12 17 18 20 24 21 22 21 21 16 13 13 17 13 14 19 15 14 10 18 15 12 11 8 8 18 28 33 38 45 45 48 35 24 27 27 24 24 21 20 17 15 12 10
8 9 13 18 21 22 20 19 17 19 13 1 15 10 16 13 11 15 14 15 17 12 12 10 12 24 29 40 37 27 30 25 23 20 22 22 25 19 21 22 23 19 17 14
19 15 14 9 15 21 18 18 19 16 9 7 18 10 7 15 23 14 8 13 17 13 11 9 17 27 27 26 24 23 24 17 17 19 23 22 23 26 27 24 23 20 17 14
10 20 19 14 6 17 21 14 7 10 8 6 11 7 7 15 14 12 11 11 12 13 11 10 10 13 24 29 22 3 23 24 19 18 17 17 26 27 25 25 23 21 17 12
4 4 18 21 23 6 18 14 3 5 8 11 11 7 13 10 15 12 14 11 10 12 9 12 15 13 27 30 36 34 24 21 18 19 20 23 26 23 23 27 27 23 17 13
4 5 13 17 9 10 6 12 18 5 5 5 5 4 2 15 12 15 18 17 10 10 10 12 17 21 30 31 30 33 29 27 28 29 32 33 33 33 33 32 27 22 18 14
4 6 12 18 15 15 8 6 10 4 5 6 5 9 5 5 5 16 19 11 13 19 21 19 19 25 32 34 36 36 36 29 27 32 35 32 30 28 25 23 23 20 15 12
3 3 3 17 6 10 3 2 5 3 4 5 6 5 6 6 13 18 20 22 21 21 22 21 20 30 32 30 34 32 34 28 28 31 31 31 28 25 23 22 20 17 13 10
4 3 4 13 14 18 6 8 8 7 6 3 4 1 9 15 17 22 22 25 24 23 22 21 21 29 30 28 30 32 31 31 29 28 28 27 25 23 23 20 16 14 12 11
5 1 3 6 7 4 4 8 11 8 3 4 2 2 7 11 16 15 25 23 22 24 22 20 19 17 26 28 29 30 29 29 26 26 25 23 22 21 19 17 15 13 12 11
5 3 3 1 3 4 3 5 5 3 1 5 3 7 4 6 10 10 15 20 20 21 20 20 19 18 27 27 28 27 28 26 25 24 22 21 19 18 16 14 14 13 14 18
5 3 5 10 14 7 6 6 5 6 12 5 9 13 7 5 5 11 12 16 22 22 21 19 19 17 25 26 26 29 28 26 23 20 19 19 17 14 14 14 15 16 13 13
2 3 6 6 3 8 3 7 10 12 22 16 16 12 5 6 9 11 17 22 23 21 21 22 21 21 24 24 25 28 26 24 21 19 18 17 16 14 13 18 16 14 11 11
1 2 2 1 2 4 7 6 8 2 13 13 14 9 13 8 15 16 19 21 23 21 21 21 20 21 23 25 24 22 21 20 20 19 19 18 16 19 18 15 13 10 9 8
3 3 2 5 4 4 5 18 11 9 7 15 19 17 17 12 17 19 19 21 22 21 21 20 21 26 26 21 18 19 20 22 21 21 18 17 18 19 15 12 10 8 11 10
3 2 1 4 4 3 8 9 6 8 8 20 20 16 21 18 25 18 19 21 22 21 20 25 28 26 21 17 20 24 24 22 19 19 19 17 15 14 11 9 7 9 11 11
9 5 1 4 5 3 2 13 16 14 5 12 20 12 23 23 16 8 19 23 21 27 27 26 27 26 25 23 23 23 22 18 18 18 16 14 11 10 10 8 6 6 9 12
6 5 6 4 5 4 7 21 10 4 4 17 21 18 17 18 13 15 20 21 28 27 27 27 22 20 22 22 23 21 20 20 19 18 16 13 15 11 8 6 6 6 7 7
7 5 4 4 4 4 18 18 3 6 14 16 17 20 24 22 20 19 18 19 21 24 24 22 23 24 23 21 21 19 18 15 15 14 13 14 14 12 9 8 9 7 14 9
5 6 3 5 2 5 15 16 14 16 18 18 21 20 26 22 20 18 17 16 19 22 21 21 20 23 22 20 17 18 16 14 14 15 12 13 14 14 15 15 13 14 16 16
10 10 4 1 5 9 15 16 17 20 20 17 15 17 20 23 20 18 15 13 18 19 18 21 20 19 20 19 17 16 14 14 17 15 14 13 16 15 14 14 15 17 16 16
4 9 7 3 6 6 20 20 14 19 22 18 18 17 18 19 17 14 15 14 18 18 17 18 20 20 19 18 18 15 14 16 17 15 13 15 12 15 14 16 14 15 16 14
6 4 4 2 6 4 7 13 14 22 20 17 20 17 14 17 16 21 15 17 14 17 16 16 19 21 20 19 19 17 15 14 15 13 13 15 15 12 14 9 10 10 9 8
Wind_Direction
230 256 240 246 232 243 244 246 236 249 221 231 216 213 196 228 205 198 185 179 178 193 229 232 239 156 144 148 158 166 176 174 183 190 186 195 196 184 150 148 155 164 164 181
260 225 251 242 257 236 245 244 235 227 223 225 205 206 200 209 232 196 193 185 181 199 227 223 206 154 151 148 160 165 176 185 195 191 192 196 200 191 160 159 171 170 162 155
238 246 249 247 247 258 238 238 243 230 206 230 208 216 202 210 220 211 197 190 177 191 212 224 170 143 146 154 153 159 177 205 214 208 190 196 200 183 165 152 139 142 156 166
223 241 240 251 240 244 249 238 244 247 217 215 204 218 219 203 207 216 202 191 184 182 205 205 142 134 141 152 162 156 164 166 209 191 187 194 160 165 167 157 143 133 151 143
268 213 248 237 237 237 266 241 236 250 264 224 200 196 207 170 209 212 209 181 181 180 189 191 148 145 153 163 177 178 174 172 185 186 193 176 170 159 153 144 133 133 125 128
263 261 252 270 271 234 244 269 243 246 247 258 255 174 203 186 206 203 182 173 171 171 178 155 147 150 155 145 163 174 177 187 187 184 186 169 154 155 142 143 131 130 125 119
266 234 230 219 257 255 229 233 228 217 218 214 264 262 196 205 199 189 170 158 158 159 161 148 130 128 124 131 120 235 186 176 177 173 163 162 156 151 155 138 141 135 125 118
264 266 195 201 220 189 224 225 216 138 158 209 220 231 203 211 187 186 158 157 150 157 156 143 130 113 111 131 149 180 163 133 142 147 136 139 147 140 134 145 140 126 115 105
302 258 185 185 151 146 218 213 199 309 177 133 194 277 185 181 181 174 160 156 150 150 147 108 105 95 95 100 100 104 103 100 109 105 110 107 112 116 108 113 114 106 100 95
287 300 188 178 175 185 221 180 192 191 183 156 160 203 206 155 216 164 147 127 113 92 94 95 94 93 90 97 103 98 98 91 94 98 102 104 102 105 106 108 103 102 96 90
252 265 215 157 159 205 166 181 241 17 264 160 151 218 125 80 141 123 110 104 100 100 98 97 98 98 101 102 101 97 93 91 86 94 99 99 99 99 98 94 92 93 95 89
302 322 298 177 156 196 194 215 185 181 260 290 141 266 332 102 92 102 106 103 104 103 104 102 103 103 102 100 96 93 95 94 98 99 97 97 99 98 94 92 95 94 89 80
339 288 323 345 114 106 172 234 184 180 344 171 99 267 9 53 82 89 110 111 110 110 108 108 106 106 102 98 96 95 97 102 103 101 100 97 94 94 94 92 91 88 85 79
186 291 258 209 137 145 113 309 161 179 357 53 358 104 68 71 100 103 100 110 110 108 104 104 103 100 99 98 97 105 111 111 107 102 99 96 93 91 90 90 88 84 85 82
185 259 248 265 285 128 161 250 326 289 210 131 157 142 153 129 124 119 125 107 104 105 105 102 97 92 87 83 90 102 109 109 106 106 105 101 97 93 96 93 90 84 77 74
304 291 346 257 311 337 187 206 230 256 200 121 120 113 114 111 87 110 108 106 105 101 98 94 90 83 82 82 87 95 99 103 106 100 97 107 95 90 88 94 85 73 64 69
230 277 218 342 148 290 211 255 201 354 69 122 143 135 114 102 112 105 107 103 102 99 94 89 83 82 80 87 94 93 101 104 102 95 86 92 90 87 88 84 78 65 70 84
186 264 14 139 96 73 36 24 24 81 79 105 118 138 126 124 103 100 103 101 96 94 87 83 82 80 88 92 98 109 102 93 85 79 79 82 83 80 75 75 75 70 67 92
245 316 292 131 108 138 25 17 18 350 120 128 125 130 127 106 87 81 94 92 88 85 80 79 79 87 90 91 92 91 88 89 87 80 76 80 83 81 78 77 78 71 76 106
33 51 218 92 80 96 346 316 354 332 110 138 117 141 125 116 99 99 99 94 89 83 81 76 79 79 81 86 90 83 76 78 86 89 86 83 82 90 76 80 83 82 72 101
359 358 17 54 90 65 340 322 306 184 151 142 136 133 122 112 116 112 88 83 87 86 84 87 79 79 87 88 89 79 71 63 74 86 89 72 63 97 91 88 85 91 61 91
20 328 13 347 75 65 344 334 352 127 118 117 113 113 106 106 104 98 92 93 92 91 87 87 77 67 85 87 84 74 70 70 73 73 74 61 63 70 77 75 62 62 52 110
44 348 11 29 79 283 301 257 85 86 89 104 111 117 113 110 106 104 103 99 99 99 103 99 87 81 77 77 75 65 55 81 87 82 78 57 68 71 72 80 78 67 63 55
348 10 38 238 347 321 355 32 80 86 84 80 87 98 105 107 101 99 100 98 97 101 103 110 102 92 85 80 74 66 66 79 85 81 69 61 64 65 73 77 68 67 57 49
343 315 332 19 348 334 21 21 92 93 89 85 80 85 92 97 92 91 89 84 88 92 98 112 112 104 96 90 81 71 68 79 78 71 70 58 69 67 64 75 75 66 68 59
349 334 357 34 334 7 2 25 48 90 94 96 101 98 98 101 103 97 93 95 95 97 99 89 113 116 111 100 91 81 77 78 81 72 63 63 65 68 71 80 76 68 67 61